Morgantown, WV

6:42 AM EDT on April 29, 2017 (GMT -0400)
Morgantown Municipal-Hart

Weather History for KMGW - February, 2014

Change the Weather History Date:

Wednesday, February 19, 2014

  Actual Average Record
Temperature  
Mean Temperature 42 °F 35 °F  
Max Temperature 53 °F 44 °F 73 °F (1994)
Min Temperature 31 °F 26 °F 0 °F (2015)
Degree Days  
Heating Degree Days 23 30  
Month to date heating degree days 714 602  
Since 1 July heating degree days 3832 3629  
Cooling Degree Days 0 0  
Month to date cooling degree days 0 0  
Year to date cooling degree days 0 0  
Moisture  
Dew Point 33 °F    
Average Humidity 0    
Maximum Humidity 0    
Minimum Humidity 0    
Precipitation  
Precipitation 0.17 in 0.09 in 0.84 in (2003)
Month to date precipitation 2.80 1.72  
Year to date precipitation 4.62 4.53  
Sea Level Pressure  
Sea Level Pressure 29.88 in    
Wind  
Wind Speed 7 mph (SSW)    
Max Wind Speed 21 mph    
Max Gust Speed 40 mph    
Visibility 9 miles    
Events Rain    
T = Trace of Precipitation, MM = Missing Value Source: NWS Daily Summary

Daily Weather History Graph

Daily Weather History Graph

Search for Another Location

Airport or City:

Trip Planner

Search our weather history database for the weather conditions in past years. The results will help you decide how hot, cold, wet, or windy it might be!

Date:

Astronomy

Feb. 19, 2014 Rise Set
Actual Time 7:06 AM EST 6:00 PM EST
Civil Twilight 6:39 AM EST 6:28 PM EST
Nautical Twilight 6:08 AM EST 6:59 PM EST
Astronomical Twilight 5:36 AM EST 7:30 PM EST
Moon 10:51 PM EST (2/19) 9:12 AM EST (2/19)
Length of Visible Light 11h 48m
Length of Day
10h 53m
Waning Gibbous, 80% of the Moon is Illuminated
Feb 19
Waning Gibbous
Feb 22
Last Quarter
Mar 1
New
Mar 8
First Quarter
Mar 16
Full

Hourly Weather History & Observations

Time (EST) Temp. Windchill Dew Point Humidity Pressure Visibility Wind Dir Wind Speed Gust Speed Precip Events Conditions
12:53 AM 44.1 °F 42.5 °F 16.0 °F 32% 29.92 in 10.0 mi SSW 3.5 mph - N/A   Clear
1:53 AM 46.0 °F 43.9 °F 16.0 °F 30% 29.89 in 10.0 mi South 4.6 mph - N/A   Clear
2:53 AM 48.0 °F - 19.9 °F 33% 29.83 in 10.0 mi SSE 5.8 mph - N/A   Mostly Cloudy
3:53 AM 50.0 °F - 24.1 °F 36% 29.77 in 10.0 mi South 5.8 mph - N/A   Clear
4:53 AM 44.1 °F 42.5 °F 32.0 °F 63% 29.78 in 10.0 mi SSW 3.5 mph - 0.02 in Rain Light Rain
5:53 AM 39.9 °F 35.8 °F 37.0 °F 89% 29.81 in 9.0 mi WNW 5.8 mph - 0.08 in Rain Light Rain
6:53 AM 37.9 °F 34.4 °F 37.9 °F 100% 29.79 in 4.0 mi SE 4.6 mph - 0.07 in Rain Light Rain
7:09 AM 39.2 °F 37.0 °F 37.4 °F 93% 29.78 in 2.5 mi SSW 3.5 mph - 0.00 in Rain Light Rain
7:16 AM 39.2 °F 35.9 °F 37.4 °F 93% 29.77 in 5.0 mi South 4.6 mph - 0.00 in   Overcast
7:34 AM 39.2 °F 35.9 °F 37.4 °F 93% 29.77 in 2.0 mi South 4.6 mph - 0.00 in   Overcast
7:43 AM 39.2 °F 35.9 °F 39.2 °F 100% 29.77 in 10.0 mi South 4.6 mph - 0.00 in   Overcast
7:53 AM 41.0 °F 37.1 °F 39.0 °F 93% 29.79 in 10.0 mi South 5.8 mph - 0.00 in   Overcast
8:26 AM 42.8 °F 39.3 °F 41.0 °F 93% 29.77 in 10.0 mi South 5.8 mph - N/A   Overcast
8:53 AM 44.1 °F 40.1 °F 42.1 °F 93% 29.77 in 10.0 mi South 6.9 mph - N/A   Mostly Cloudy
9:53 AM 46.0 °F 41.9 °F 43.0 °F 89% 29.77 in 10.0 mi SSW 8.1 mph - N/A   Overcast
10:53 AM 46.9 °F - 44.1 °F 90% 29.77 in 10.0 mi SSW 5.8 mph 17.3 mph N/A   Overcast
11:53 AM 48.9 °F - 45.0 °F 86% 29.76 in 10.0 mi SW 8.1 mph - N/A   Overcast
1:53 PM 51.1 °F - 37.0 °F 59% 29.78 in 10.0 mi West 8.1 mph 29.9 mph N/A   Mostly Cloudy
2:53 PM 52.0 °F - 28.9 °F 41% 29.81 in 10.0 mi West 17.3 mph 33.4 mph N/A   Clear
3:53 PM 50.0 °F - 28.0 °F 43% 29.88 in 10.0 mi West 20.7 mph 29.9 mph N/A   Clear
4:53 PM 48.9 °F - 28.9 °F 46% 29.95 in 10.0 mi West 15.0 mph 25.3 mph N/A   Partly Cloudy
5:53 PM 46.9 °F - 28.9 °F 50% 30.02 in 10.0 mi WNW 9.2 mph 23.0 mph N/A   Scattered Clouds
6:53 PM 44.1 °F 40.8 °F 28.9 °F 55% 30.09 in 10.0 mi West 5.8 mph - N/A   Clear
7:53 PM 43.0 °F 41.3 °F 30.0 °F 60% 30.13 in 10.0 mi WSW 3.5 mph - N/A   Clear
8:53 PM 41.0 °F - 30.0 °F 65% 30.14 in 10.0 mi Calm Calm - N/A   Clear
9:53 PM 37.9 °F - 28.9 °F 70% 30.14 in 10.0 mi Calm Calm - N/A   Clear
10:53 PM 33.1 °F 30.0 °F 28.0 °F 82% 30.13 in 10.0 mi South 3.5 mph - N/A   Clear
11:53 PM 30.9 °F 26.2 °F 27.0 °F 85% 30.10 in 10.0 mi East 4.6 mph - N/A   Clear